Regional Weather Roundup
Issued by NWS Midland/Odessa, TX

Home | Current Version | Previous Version | Text Only | Print | Product List | Glossary On
Versions: 1 2 3 4 5 6 7 8 9 10 11 12 13 14 15 16 17 18 19 20 21 22 23 24 25 26 27 28 29 30 31 32 33 34 35 36 37 38 39 40 41 42 43 44 45 46 47 48 49 50
000
ASUS44 KMAF 291510
RWRMAF
MIDLAND AREA WEATHER ROUNDUP
NATIONAL WEATHER SERVICE MIDLAND TX
900 AM CST THU JAN 29 2015

...IN SOUTHWEST TEXAS AND SOUTHEAST NEW MEXICO...

CITY           SKY/WX    TMP DP  RH WIND       PRES   REMARKS
ALPINE         SUNNY     51  45  81 CALM      30.35R
ANDREWS        FAIR      49  33  55 NE18      30.32R
ARTESIA        CLOUDY    46  37  71 N16       30.41R WCI  40
BIG SPRING     SUNNY     54  34  47 NE25      30.30S
CARLSBAD       PTSUNNY   49  36  61 NW20      30.36R
DRYDEN           N/A     57  42  57 NE8       30.19R
FORT STOCKTON  SUNNY     51  42  71 W14       30.25R
GUAD PASS      MOSUNNY   56  31  38 NE18      30.32R
HOBBS          SUNNY     45  36  70 N15       30.35R WCI  38
MARFA          SUNNY     52  45  76 NE8       30.30R
MIDLAND AIRPK  MOSUNNY   53  36  52 NE17G23   30.30R
MIDLAND INTL   MOSUNNY   52  35  52 NE22      30.28R
ODESSA         MOSUNNY   50  36  58 NE21      30.29R
PECOS          SUNNY     47  40  78 NW12      30.28R
PRESIDIO       FAIR      55  47  74 CALM      30.21R
SEMINOLE       MOSUNNY   47  34  62 NE15G22   30.34R
SNYDER         MOSUNNY  N/A N/A N/A N17G24    30.32R
WINK           MOSUNNY   52  36  54 NE13      30.26R
$$
...OTHER STATIONS IN TEXAS...

CITY           SKY/WX    TMP DP  RH WIND       PRES   REMARKS
ABILENE        MOSUNNY   51  38  60 N12       30.31R
AMARILLO       CLOUDY    43  31  62 N20       30.43R WCI  34
AUSTIN         CLOUDY    57  57 100 CALM      30.23R FOG
BROWNSVILLE    SUNNY     66  63  90 SE6       30.19R
CORPUS CHRISTI MOSUNNY   61  60  97 S8        30.20R
DALLAS FTW     MOSUNNY   60  36  40 N16       30.22R
DEL RIO        SUNNY     54  45  71 CALM      30.19R
EL PASO        CLOUDY    51  38  60 N12       30.25R
HOUSTON INT    FOG       60  60 100 W3        30.24R VSB<1/4
LUBBOCK        CLOUDY    45  34  65 NE21G28   30.35R WCI  37
SAN ANGELO     MOSUNNY   56  42  59 E6        30.26R
SAN ANTONIO    PTSUNNY   60  56  86 S8        30.23R
WACO           SUNNY     55  49  80 W9        30.21R
WICHITA FALLS  NOT AVBL
$$
...OTHER LOCATIONS IN NEW MEXICO...

CITY           SKY/WX    TMP DP  RH WIND       PRES   REMARKS
ALAMAGORDO     PTSUNNY   41  36  81 SE7       30.28R WCI  36
ALBUQUERQUE    CLOUDY    48  28  46 E24G33    30.35R
CANNON AFB     PTSUNNY   42  33  69 NE22      30.39R WCI  33
CLOVIS         PTSUNNY   41  32  70 N22G29    30.41R WCI  31
HOLLOMAN AFB   MOSUNNY   42  37  81 S7        30.26R WCI  38
ROSWELL        CLOUDY    47  34  60 N13       30.40R
RUIDOSO        MOSUNNY   39  27  60 SE14      30.45R WCI  31
SANTA FE       MOCLDY    40  27  59 S15       30.39R WCI  32
TRUTH OR CONSE CLOUDY    50  31  48 N16G22    30.29R
TUCUMCARI      PTSUNNY   44  33  65 NE13      30.44R WCI  38
$$


USA.gov is the U.S. government's official web portal to all federal, state and local government web resources and services.